Location: Clanezzo
(45.7500°N, 9.6000°E)
Time: 04:24:54
(UTC+00:00)

Gbstr 26 Del rocket - Pass Details

Date: 28 September 2021
Orbit: 492 x 1263 km, 51.8° (Epoch: 20 October)

Event Time Altitude Azimuth Distance (km) Brightness Sun altitude
Rises 17:29:09 0° 190° (S) 3,689 7.1 -4.6°
Reaches altitude 10° 17:32:05 10° 178° (S) 2,863 6.4 -5.1°
Maximum altitude 17:37:39 26° 125° (SE) 2,113 5.3 -6.1°
Drops below altitude 10° 17:43:48 10° 74° (ENE) 3,197 6.1 -7.2°
Enters shadow 17:45:48 - 67° (ENE) 3,766 6.5 -7.5°
